Regional Weather Roundup
Issued by NWS

Home | Current Version | Previous Version | Graphics & Text | Print | Product List | Glossary On
Versions: 1 2 3 4 5 6 7 8 9 10 11 12 13 14 15 16 17 18 19 20 21 22 23 24 25 26 27 28 29 30 31 32 33 34 35 36 37 38 39 40 41 42 43 44 45 46 47 48 49 50
000
ASUS43 KLMK 232202
RWRKY
KENTUCKY REGIONAL WEATHER ROUNDUP
NATIONAL WEATHER SERVICE LOUISVILLE KY
600 PM EDT WED MAY 23 2018

NOTE "FAIR" INDICATES FEW OR NO CLOUDS BELOW 12,000 FEET
WITH NO SIGNIFICANT WEATHER AND/OR OBSTRUCTIONS TO VISIBILITY.

KYZ001>023-026-027-061>063-070>075-232300-
WESTERN AND SOUTH CENTRAL KENTUCKY

CITY           SKY/WX    TMP DP  RH WIND       PRES   REMARKS
PADUCAH        FAIR      87  63  44 N8        30.06S
HENDERSON      NOT AVBL
OWENSBORO      FAIR      85  63  47 E6        30.07F
HOPKINSVILLE   FAIR      85  63  47 N9        30.07R
BOWLING GREEN  FAIR      85  64  49 VRB5      30.07S
GLASGOW        NOT AVBL
$$

KYZ024-025-028>034-038-045-046-053-232300-
NORTH CENTRAL KENTUCKY

CITY           SKY/WX    TMP DP  RH WIND       PRES   REMARKS
LOUISVILLE/SDF PTSUNNY   85  60  42 VRB7      30.08S
LOUISVILLE/LOU FAIR      85  62  46 VRB3      30.09S
FORT KNOX      FAIR      82  62  49 NE8       30.09F
$$

KYZ035>037-039>044-047>052-055>060-089>105-232300-
NORTHEAST KENTUCKY

CITY           SKY/WX    TMP DP  RH WIND       PRES   REMARKS
LEXINGTON      FAIR      81  63  54 NE13      30.11S
COVINGTON      FAIR      80  53  39 NE13      30.13S
FRANKFORT      FAIR      82  60  47 N6        30.10S
$$

KYZ054-064>069-076>088-106>120-232300-
SOUTHEAST KENTUCKY

CITY           SKY/WX    TMP DP  RH WIND       PRES   REMARKS
JACKSON        FAIR      81  64  56 CALM      30.11S
LONDON         FAIR      83  62  49 N7        30.09S
SOMERSET       NOT AVBL
MIDDLESBORO    FAIR      82  64  55 N6        30.08S
MONTICELLO     FAIR      83  65  54 N14       30.10S
$$





USA.gov is the U.S. government's official web portal to all federal, state and local government web resources and services.